STARLINK-3091 (49172 NORAD) Tracking and Keplerian Element Data

This shows tracking and keplerian element data for the satellite.

Feedback or suggestion? Click here.




ElementValue
Catalog49172
NameSTARLINK-3091
Epoch Orbit696
Epoch Day300.83334491
Epoch Year2021
RAAN3.9383
Inclination70.0001
Eccentricity0.0003967
Argument of Perigee287.9919
Mean Anonmoly112.5509
Mean Motion15.69805623
Decay Rate-0.00132566
L11 49172U 21082AU 21300.83334491 -.00132566 00000-0 -11235-2 0 9996
L22 49172 70.0001 3.9383 0003967 287.9919 112.5509 15.69805623 6968

Live tracking and technical data element details for STARLINK-3091 (NORAD 49172). STARLINK-3091 can be tracked NOW for your location showing map with azimuth and elevation plus other details from your city location.

Track the satellite on the map from your city or location and see movement details for azimuth, elevation, latitude, longitude, range, height, and movement on the map or in text.







IsCatalogInMostPopularTable: catalog: 49172, numindb: 8
Update: records affected: 1



GetName: 49172 STARLINK-3091

Hit Count: updated at: Thu, 28 Oct 2021 11:12:36 GMT